Simultaneous Nadir Overpasses (SNOs) Predictions

Prediction of SNOs between NOAA-20 and METOP-C Satellite Orbit:

Table of predicted SNOs for the next 14.0 days since TLE Epoch: 6/11/2022
Index Date (NOAA-20) Time (NOAA-20) Lat,Lon (NOAA-20) SZA (NOAA-20 ) Date (METOP-C) Time (METOP-C) Lat,Lon (METOP-C) SZA (METOP-C ) Distance(km) Time Diff (sec)
1 06/24/2022 23:47:52 73.46, 173.45 50.29 06/24/2022 23:48:59 73.38, 176.09 50.06 84.19 67
2 06/25/2022 00:38:35 -73.39, -19.09 129.79 06/25/2022 00:39:43 -73.34, -16.68 129.98 76.91 68
3 06/25/2022 01:29:16 73.16, 148.73 49.96 06/25/2022 01:30:26 73.11, 150.15 49.82 46.14 70
4 06/25/2022 02:19:59 -73.10, -43.82 130.11 06/25/2022 02:21:10 -73.07, -42.62 130.22 38.99 71
5 06/25/2022 03:10:40 72.87, 123.99 49.64 06/25/2022 03:11:53 72.84, 124.23 49.58 8.43 73
6 06/25/2022 04:01:23 -72.81, -68.56 130.44 06/25/2022 04:02:37 -72.80, -68.53 130.46 1.26 74



Historial Predications of SNOs between NOAA-20 and METOP-C
